Probability
0 0 0 0 0 0 0 0 0 0 0 0 0 0 0 0 0 0 0 0 0 0 0 0 0 0 0 0 0 0 0 0 0 0 0 0 0 0 0 0 0 0 0
0 0 0 0 0 0 0 0 0 0 0 0 0 0 0 0 0 0 0 0 0 0 0 0 0 0 0 0 0 0 0 0 0 0 0 0 0 0 0 0 0 0 0
0 0 0 0 0 0 0 0 0 0 0 0 0 0 0 0 0 0 0 0 0 0 0 0 0 0 0 0 0 0 0 0 0 0 0 0 0 0 0 0 0 0 0
0 0 0 0 0 0 0 0 0 0 0 0 0 0 0 0 0 0 0 0 0 0 0 0 0 0 0 0 0 0 0 0 0 0 0 0 0 0 0 0 0 0 0
0 0 0 0 0 0 0 0 0 0 0 0 0 0 0 0 0 0 0 0 0 0 0 0 0 0 0 0 0 0 0 0 0 0 0 0 0 0 0 0 0 0 0
0 0 0 0 0 0 0 0 0 0 0 0 0 0 0 0 0 0 0 0 0 0 0 0 0 0 0 0 0 0 0 0 0 0 0 0 0 0 0 0 0 0 0
0 0 0 0 0 0 0 0 0 0 0 0 0 0 0 0 0 0 0 0 0 0 0 0 0 0 0 0 0 0 0 0 0 0 0 0 0 0 0 0 0 0 0
0 0 0 0 0 0 0 0 0 0 0 0 0 0 0 0 0 0 0 0 0 0 0 0 0 0 0 0 0 0 0 0 0 0 0 0 0 0 0 0 0 0 0
0 0 0 0 0 0 0 0 0 0 0 0 0 0 0 0 0 0 0 0 0 0 0 0 0 0 0 0 0 0 0 0 0 0 0 0 0 0 0 0 0 0 0
0 0 0 0 0 0 0 0 0 0 0 0 0 0 0 0 0 0 0 0 0 0 0 0 0 0 0 0 0 0 0 0 0 0 0 0 0 0 0 0 0 0 0
0 0 0 0 0 0 0 0 0 0 0 0 0 0 0 0 0 0 0 0 0 0 0 0 0 0 0 0 0 0 0 0 0 0 0 0 0 0 0 0 0 0 0
0 0 0 0 0 0 0 0 0 0 0 0 0 0 0 0 0 0 0 0 0 0 0 0 0 0 0 0 0 0 0 0 0 0 0 0 0 0 0 0 0 0 0
0 0 0 0 0 0 0 0 0 0 0 0 0 0 0 0 0 0 0 0 0 0 0 0 0 0 0 0 0 0 0 0 0 0 0 0 0 0 0 0 0 0 0
0 0 0 0 0 0 0 0 0 0 0 0 0 0 0 0 0 0 0 0 0 0 0 0 0 0 0 0 0 0 0 0 0 0 0 0 0 0 0 0 0 0 0
0 0 0 0 0 0 0 0 0 0 0 0 0 0 0 0 0 0 0 0 0 0 0 0 0 0 0 0 0 0 0 0 0 0 0 0 0 0 0 0 0 0 0
0 0 0 0 0 0 0 0 0 0 0 0 0 0 0 0 0 0 0 0 0 0 0 0 0 0 0 0 0 0 0 0 0 0 0 0 0 0 0 0 0 0 0
0 0 0 0 0 0 0 0 0 0 0 0 0 0 0 0 0 0 0 0 0 0 0 0 0 0 0 0 0 0 0 0 0 0 0 0 0 0 0 0 0 0 0
0 0 0 0 0 0 0 0 0 0 0 0 0 0 0 0 0 0 0 0 0 0 0 0 0 0 0 0 0 0 0 0 0 0 0 0 0 0 0 0 0 0 0
0 0 0 0 0 0 0 0 0 0 0 0 0 0 0 0 0 0 0 0 0 0 0 0 0 0 0 0 0 0 0 0 0 0 0 0 0 0 0 0 0 0 0
0 0 0 0 0 0 0 0 0 0 0 0 0 0 0 0 0 0 0 0 0 0 0 0 0 0 0 0 0 0 0 0 0 0 0 0 0 0 0 0 0 0 0
0 0 0 0 0 0 0 0 0 0 0 0 0 0 0 0 0 0 0 0 0 0 0 0 0 0 0 0 0 0 0 0 0 0 0 0 0 0 0 0 0 0 0
0 0 0 0 0 0 0 0 0 0 0 0 0 0 0 0 0 0 0 0 0 0 0 0 0 0 0 0 0 0 0 0 0 0 0 0 0 0 0 0 0 0 0
0 0 0 0 0 0 0 0 0 0 0 0 0 0 0 0 0 0 0 0 0 0 0 0 0 0 0 0 0 0 0 0 0 0 0 0 0 0 0 0 0 0 0
0 0 0 0 0 0 0 0 0 0 0 0 0 0 0 0 0 0 0 0 0 0 0 0 0 0 0 0 0 0 0 0 0 0 0 0 0 0 0 0 0 0 0
0 0 0 0 0 0 0 0 0 0 0 0 0 0 0 0 0 0 0 0 0 0 0 0 0 0 0 0 0 0 0 0 0 0 0 0 0 0 0 0 0 0 0
0 0 0 0 0 0 0 0 0 0 0 0 0 0 0 0 0 0 0 0 0 0 0 0 0 0 0 0 0 0 0 0 0 0 0 0 0 0 0 0 0 0 0
Wind_Speed
6 6 5 5 5 4 4 4 4 4 4 4 4 4 4 4 4 3 2 3 7 11 13 14 14 14 14 15 16 15 13 11 8 6 6 5 5 6 7 7 8 9 10
7 7 7 6 5 5 4 4 4 3 3 3 3 4 4 4 4 5 4 4 6 10 14 15 16 16 15 15 15 16 16 15 12 9 8 7 6 6 6 6 7 8 8
8 7 7 6 5 5 5 5 5 4 4 4 4 3 3 3 4 5 5 5 6 9 14 16 17 17 17 17 16 16 16 17 15 13 12 9 8 8 7 7 7 7 8
9 8 7 6 6 5 5 5 5 4 5 4 3 3 3 3 5 6 6 6 6 6 10 17 18 18 18 18 18 17 17 17 17 15 15 13 11 10 10 9 8 8 8
10 8 7 7 6 6 6 5 5 5 5 5 4 3 2 4 5 6 6 7 6 6 6 12 16 17 19 20 20 19 18 18 18 17 17 16 14 13 11 11 11 10 10
9 8 8 9 7 7 7 6 6 6 5 5 4 3 2 5 4 5 5 5 6 8 8 8 7 10 18 21 21 20 20 19 19 19 19 18 17 16 14 13 13 13 12
9 8 7 8 7 8 8 8 5 6 7 6 5 4 4 5 6 4 4 5 7 8 8 8 6 6 8 17 19 20 20 20 20 20 20 20 20 19 18 16 15 15 15
9 9 8 7 7 7 9 9 7 5 6 8 5 3 4 4 6 3 4 5 6 5 6 7 7 8 7 6 12 19 20 20 21 21 21 21 21 21 20 20 18 17 16
9 8 8 7 7 7 6 7 7 7 5 6 6 5 4 3 4 4 4 5 7 6 5 6 7 7 8 6 7 12 18 19 20 21 22 22 22 22 22 22 21 20 19
8 8 8 8 7 6 7 7 7 5 5 4 4 4 3 1 2 5 4 5 7 7 7 8 8 7 7 5 7 13 17 19 21 22 23 24 24 23 23 23 22 22 22
7 7 7 7 7 6 6 7 6 7 5 4 4 3 3 3 4 2 5 6 5 5 6 7 7 6 6 6 5 9 17 20 22 24 25 25 25 25 24 24 23 23 23
5 6 7 6 6 5 6 5 5 6 5 5 4 3 3 3 3 3 4 7 7 5 8 6 5 6 6 6 9 15 19 23 25 26 26 26 26 26 26 26 25 24 23
4 5 5 5 5 5 5 5 5 5 5 4 4 3 3 2 2 2 4 5 6 6 4 4 4 6 7 6 9 20 19 24 26 27 28 28 28 28 27 27 26 25 24
4 5 5 5 5 5 5 4 4 3 4 4 4 3 2 2 2 2 3 4 7 5 4 6 4 4 7 8 14 23 13 24 27 28 29 29 29 29 28 28 27 26 25
5 5 5 5 5 4 4 4 3 3 3 3 3 3 2 2 2 2 3 3 4 7 9 5 4 6 8 8 16 12 11 22 28 28 28 29 29 28 28 28 28 27 27
5 6 5 5 4 3 3 3 2 2 3 3 2 3 3 2 3 3 3 3 3 5 9 7 6 8 10 12 19 13 13 27 25 27 27 28 28 28 28 28 28 28 27
6 6 5 4 4 3 2 1 1 1 2 2 3 3 3 3 3 3 3 3 3 4 10 13 8 7 9 11 13 11 11 10 11 23 27 27 27 27 27 28 27 27 27
6 6 5 4 3 3 2 1 1 1 2 3 3 3 4 4 4 4 3 4 4 4 7 16 14 9 9 10 12 13 13 12 10 21 25 27 27 27 27 27 27 26 26
6 6 5 4 4 3 3 3 3 3 3 4 4 4 4 4 5 4 4 4 4 6 5 11 15 11 9 9 12 13 12 9 12 16 22 23 25 26 26 26 27 27 27
7 6 5 5 4 4 4 4 4 3 4 4 4 5 5 5 5 5 5 5 6 6 7 10 12 12 11 10 10 11 12 9 10 12 16 18 20 22 25 28 28 28 28
7 6 6 5 5 4 5 5 4 4 4 5 5 5 6 7 10 8 7 6 6 6 7 9 12 12 12 11 11 11 14 13 10 9 10 8 9 9 12 19 24 26 28
6 6 6 6 6 6 9 11 7 5 5 6 7 6 6 6 10 13 15 15 13 9 7 9 12 13 15 14 13 13 14 16 15 5 8 11 9 10 9 8 20 27 28
8 7 7 7 7 9 13 13 12 7 6 6 7 7 7 5 6 7 11 15 14 17 19 15 15 16 17 16 17 18 16 17 17 13 13 16 9 11 9 12 24 28 29
8 8 8 8 8 10 15 14 13 8 6 8 8 8 8 7 7 9 9 9 10 11 15 13 13 16 16 16 17 18 18 17 15 12 12 15 11 10 10 7 20 27 27
8 8 7 8 9 10 14 15 13 5 6 9 9 8 8 7 12 15 10 8 11 11 16 21 23 24 28 28 23 14 12 13 13 10 9 11 12 12 10 8 12 21 22
8 7 7 8 9 8 13 15 14 5 6 7 7 8 10 12 14 15 8 7 9 11 10 11 15 18 17 18 22 14 11 11 12 10 7 7 10 10 9 5 6 6 11
Wind_Direction
73 72 68 65 57 51 52 51 47 39 36 32 31 29 15 15 18 18 39 48 34 23 16 12 8 3 360 356 356 352 346 343 335 311 306 311 326 335 341 345 346 350 353
73 74 68 60 52 47 47 53 55 48 35 23 19 21 4 6 8 9 16 26 36 32 23 17 11 5 359 354 350 349 347 345 339 330 312 297 294 301 313 322 326 330 335
66 70 67 57 46 41 42 42 38 42 30 14 5 360 353 4 15 19 23 30 29 27 24 21 14 9 3 357 352 346 343 342 340 335 327 304 292 282 285 295 303 311 315
61 66 64 55 44 41 41 44 32 30 21 7 351 343 351 20 31 33 40 43 35 25 17 19 13 8 3 358 354 349 344 341 340 337 335 323 297 286 274 276 281 289 297
60 64 62 53 45 43 38 43 41 30 13 353 333 332 15 53 46 42 49 49 40 30 19 14 12 5 0 356 353 350 346 342 342 340 336 331 320 295 282 272 268 271 278
56 62 63 54 48 48 39 33 43 35 14 346 335 348 57 74 54 52 50 47 38 29 17 10 7 1 356 352 350 348 347 347 345 342 339 334 329 319 294 282 270 265 266
56 59 63 58 54 53 44 34 33 38 22 0 9 5 39 76 52 52 55 46 35 24 10 4 359 356 346 347 347 346 348 348 347 345 342 339 334 327 319 298 282 271 264
56 65 61 59 54 54 45 35 31 34 32 23 21 22 5 356 11 13 47 48 30 12 359 354 351 348 338 335 338 346 348 348 348 346 343 341 336 331 325 319 304 286 275
59 60 60 60 54 55 51 40 32 42 38 19 31 48 52 351 318 335 12 31 15 358 344 339 339 331 328 332 332 345 347 346 346 345 343 340 337 332 328 322 316 307 289
59 60 61 61 58 54 51 44 37 35 45 30 13 23 52 357 355 322 323 359 359 344 340 336 325 316 316 324 330 339 342 341 341 339 337 334 332 329 326 322 318 312 305
62 62 62 62 61 57 54 49 42 38 39 43 31 9 0 360 33 321 306 326 328 325 325 316 309 311 315 318 317 328 335 334 333 332 330 327 325 323 321 319 316 313 308
75 71 72 66 63 59 55 50 48 44 38 38 34 30 24 7 356 339 308 315 314 309 306 300 312 326 322 324 328 333 333 330 327 324 322 321 319 318 316 315 313 310 308
94 81 80 76 69 64 60 57 57 47 38 35 31 20 11 359 346 329 306 306 307 299 299 310 323 322 330 345 338 331 328 326 323 320 317 315 314 313 312 310 308 307 305
118 108 95 89 79 65 58 55 60 50 36 28 22 16 354 340 345 336 320 318 314 304 303 302 305 326 347 337 326 328 326 324 320 316 314 312 310 309 308 307 306 305 303
125 118 109 102 93 80 64 60 60 45 25 21 9 355 343 330 337 328 316 311 303 308 308 298 322 342 333 327 325 324 324 320 318 316 313 311 309 308 307 306 305 303 302
131 128 119 112 105 92 72 61 61 42 22 360 343 337 332 326 321 313 309 305 290 283 290 291 305 319 328 324 320 322 316 317 316 314 312 311 309 307 306 305 304 302 301
141 137 134 131 127 120 106 84 69 36 348 321 314 321 315 311 306 308 304 293 286 287 289 294 299 313 320 318 315 310 309 307 309 314 313 311 311 310 308 307 306 304 303
146 144 145 150 157 161 162 179 228 239 261 279 287 293 290 296 295 293 291 292 290 285 287 296 303 312 313 311 309 311 311 311 310 312 316 317 316 315 313 312 311 309 308
151 153 162 175 181 185 195 214 228 239 246 256 266 270 274 283 285 283 288 287 287 292 289 293 298 307 308 310 308 305 303 304 309 311 315 314 314 314 317 317 316 315 313
163 171 180 188 190 194 207 222 229 240 251 258 261 262 263 265 273 281 287 281 286 287 291 293 296 303 305 304 302 308 308 303 304 308 306 307 309 315 316 315 314 313 311
174 176 182 190 195 202 214 217 226 243 254 263 262 258 259 266 274 280 280 273 278 279 286 291 295 299 302 309 308 307 303 303 296 294 293 292 299 296 300 303 305 304 305
176 179 190 194 206 216 227 228 228 238 254 261 267 266 264 262 274 284 290 292 290 288 287 286 291 293 298 300 301 300 300 300 301 287 289 293 290 290 289 287 296 302 304
183 192 199 201 213 226 232 234 237 240 247 256 264 269 271 266 266 276 284 290 293 291 290 289 289 291 295 297 296 294 291 290 293 299 298 294 289 288 287 294 300 300 300
192 199 205 207 214 227 234 237 240 242 247 254 256 257 263 267 268 276 276 279 283 287 289 289 285 288 291 294 292 293 296 295 292 291 289 291 294 291 292 283 295 296 297
196 202 203 205 214 229 233 238 239 230 245 255 256 254 254 258 270 280 285 283 289 293 300 301 301 301 302 304 304 302 298 296 296 296 290 286 293 298 294 286 285 291 295
200 200 211 208 214 223 233 240 240 226 242 252 255 257 255 260 269 279 282 285 294 300 306 311 311 308 307 304 304 300 300 298 299 299 290 289 298 308 300 269 272 286 291